owner,sensor,date,latitude,longitude,vertical_datum,sea_water_practical_salinity,qcFlag 
TABS,ioos:station:wmo:42043:1,2006-01-01T00:00:00Z,28.9818,-94.9186,2.0,32.62,11111222 
TABS,ioos:station:wmo:42043:1,2006-01-01T00:30:00Z,28.9818,-94.9186,2.0,32.53,11111222 
TABS,ioos:station:wmo:42043:1,2006-01-01T01:00:00Z,28.9818,-94.9186,2.0,22.35,11111222 
TABS,ioos:station:wmo:42043:1,2006-01-01T01:30:00Z,28.9818,-94.9186,2.0,22.43,11111222 
TABS,ioos:station:wmo:42043:1,2006-01-01T02:00:00Z,28.9818,-94.9186,2.0,22.12,11111222 
TABS,ioos:station:wmo:42043:1,2006-01-01T02:30:00Z,28.9818,-94.9186,2.0,21.9,11111222 
TABS,ioos:station:wmo:42043:1,2006-01-01T03:00:00Z,28.9818,-94.9186,2.0,22.25,11111222 
TABS,ioos:station:wmo:42043:1,2006-01-01T03:30:00Z,28.9818,-94.9186,2.0,22.09,11111222 
TABS,ioos:station:wmo:42043:1,2006-01-01T04:00:00Z,28.9818,-94.9186,2.0,21.68,11111222 
TABS,ioos:station:wmo:42043:1,2006-01-01T04:30:00Z,28.9818,-94.9186,2.0,21.74,11111222 
TABS,ioos:station:wmo:42043:1,2006-01-01T05:00:00Z,28.9818,-94.9186,2.0,22.42,11111222 
TABS,ioos:station:wmo:42043:1,2006-01-01T05:30:00Z,28.9818,-94.9186,2.0,22.27,11111222 
TABS,ioos:station:wmo:42043:1,2006-01-01T06:00:00Z,28.9818,-94.9186,2.0,22.49,11111222 
TABS,ioos:station:wmo:42043:1,2006-01-01T06:30:00Z,28.9818,-94.9186,2.0,22.74,11111222 
TABS,ioos:station:wmo:42043:1,2006-01-01T07:00:00Z,28.9818,-94.9186,2.0,22.71,11111222 
TABS,ioos:station:wmo:42043:1,2006-01-01T07:30:00Z,28.9818,-94.9186,2.0,22.17,11111222 
TABS,ioos:station:wmo:42043:1,2006-01-01T08:00:00Z,28.9818,-94.9186,2.0,22.43,11111222 
TABS,ioos:station:wmo:42043:1,2006-01-01T08:30:00Z,28.9818,-94.9186,2.0,22.51,11111222 
TABS,ioos:station:wmo:42043:1,2006-01-01T09:00:00Z,28.9818,-94.9186,2.0,22.75,11111222 
TABS,ioos:station:wmo:42043:1,2006-01-01T09:30:00Z,28.9818,-94.9186,2.0,22.85,11111222 
TABS,ioos:station:wmo:42043:1,2006-01-01T10:00:00Z,28.9818,-94.9186,2.0,23.07,11111222 
TABS,ioos:station:wmo:42043:1,2006-01-01T10:30:00Z,28.9818,-94.9186,2.0,22.62,11111222 
TABS,ioos:station:wmo:42043:1,2006-01-01T11:00:00Z,28.9818,-94.9186,2.0,22.85,11111222 
TABS,ioos:station:wmo:42043:1,2006-01-01T11:30:00Z,28.9818,-94.9186,2.0,22.5,11111222 
TABS,ioos:station:wmo:42043:1,2006-01-01T12:00:00Z,28.9818,-94.9186,2.0,22.92,11111222 
TABS,ioos:station:wmo:42043:1,2006-01-01T12:30:00Z,28.9818,-94.9186,2.0,32.53,11111222 
TABS,ioos:station:wmo:42043:1,2006-01-01T13:00:00Z,28.9818,-94.9186,2.0,32.6,11111222 
TABS,ioos:station:wmo:42043:1,2006-01-01T13:30:00Z,28.9818,-94.9186,2.0,32.69,11111222 
TABS,ioos:station:wmo:42043:1,2006-01-01T14:00:00Z,28.9818,-94.9186,2.0,32.79,11111222 
TABS,ioos:station:wmo:42043:1,2006-01-01T14:30:00Z,28.9818,-94.9186,2.0,32.79,11111222 
TABS,ioos:station:wmo:42043:1,2006-01-01T15:00:00Z,28.9818,-94.9186,2.0,32.86,11111222 
TABS,ioos:station:wmo:42043:1,2006-01-01T15:30:00Z,28.9818,-94.9186,2.0,32.75,11111222 
TABS,ioos:station:wmo:42043:1,2006-01-01T16:00:00Z,28.9818,-94.9186,2.0,32.73,11111222 
TABS,ioos:station:wmo:42043:1,2006-01-01T16:30:00Z,28.9818,-94.9186,2.0,32.66,11111222 
TABS,ioos:station:wmo:42043:1,2006-01-01T17:00:00Z,28.9818,-94.9186,2.0,32.6,11111222 
TABS,ioos:station:wmo:42043:1,2006-01-01T17:30:00Z,28.9818,-94.9186,2.0,32.6,11111222 
TABS,ioos:station:wmo:42043:1,2006-01-01T18:00:00Z,28.9818,-94.9186,2.0,32.62,11111222 
TABS,ioos:station:wmo:42043:1,2006-01-01T18:30:00Z,28.9818,-94.9186,2.0,32.63,11111222 
TABS,ioos:station:wmo:42043:1,2006-01-01T19:00:00Z,28.9818,-94.9186,2.0,32.67,11111222 
TABS,ioos:station:wmo:42043:1,2006-01-01T19:30:00Z,28.9818,-94.9186,2.0,32.68,11111222 
TABS,ioos:station:wmo:42043:1,2006-01-01T20:00:00Z,28.9818,-94.9186,2.0,32.7,11111222 
TABS,ioos:station:wmo:42043:1,2006-01-01T20:30:00Z,28.9818,-94.9186,2.0,32.72,11111222 
TABS,ioos:station:wmo:42043:1,2006-01-01T21:00:00Z,28.9818,-94.9186,2.0,32.75,11111222 
TABS,ioos:station:wmo:42043:1,2006-01-01T21:30:00Z,28.9818,-94.9186,2.0,32.72,11111222 
TABS,ioos:station:wmo:42043:1,2006-01-01T22:00:00Z,28.9818,-94.9186,2.0,32.72,11111222 
TABS,ioos:station:wmo:42043:1,2006-01-01T22:30:00Z,28.9818,-94.9186,2.0,32.73,11111222 
TABS,ioos:station:wmo:42043:1,2006-01-01T23:00:00Z,28.9818,-94.9186,2.0,32.69,11111222 
TABS,ioos:station:wmo:42043:1,2006-01-01T23:30:00Z,28.9818,-94.9186,2.0,32.69,11111222 
TABS,ioos:station:wmo:42043:1,2006-01-02T00:00:00Z,28.9818,-94.9186,2.0,32.71,11111222 
TABS,ioos:station:wmo:42043:1,2006-01-02T00:30:00Z,28.9818,-94.9186,2.0,23.06,11111222 
TABS,ioos:station:wmo:42043:1,2006-01-02T01:00:00Z,28.9818,-94.9186,2.0,23.01,11111222 
TABS,ioos:station:wmo:42043:1,2006-01-02T01:30:00Z,28.9818,-94.9186,2.0,22.85,11111222 
TABS,ioos:station:wmo:42043:1,2006-01-02T02:00:00Z,28.9818,-94.9186,2.0,22.7,11111222 
TABS,ioos:station:wmo:42043:1,2006-01-02T02:30:00Z,28.9818,-94.9186,2.0,23.0,11111222 
TABS,ioos:station:wmo:42043:1,2006-01-02T03:00:00Z,28.9818,-94.9186,2.0,23.05,11111222 
TABS,ioos:station:wmo:42043:1,2006-01-02T03:30:00Z,28.9818,-94.9186,2.0,23.07,11111222 
TABS,ioos:station:wmo:42043:1,2006-01-02T04:00:00Z,28.9818,-94.9186,2.0,22.82,11111222 
TABS,ioos:station:wmo:42043:1,2006-01-02T04:30:00Z,28.9818,-94.9186,2.0,23.19,11111222 
TABS,ioos:station:wmo:42043:1,2006-01-02T05:00:00Z,28.9818,-94.9186,2.0,22.96,11111222 
TABS,ioos:station:wmo:42043:1,2006-01-02T05:30:00Z,28.9818,-94.9186,2.0,22.49,11111222 
TABS,ioos:station:wmo:42043:1,2006-01-02T06:00:00Z,28.9818,-94.9186,2.0,22.89,11111222 
TABS,ioos:station:wmo:42043:1,2006-01-02T06:30:00Z,28.9818,-94.9186,2.0,23.19,11111222 
TABS,ioos:station:wmo:42043:1,2006-01-02T07:00:00Z,28.9818,-94.9186,2.0,23.14,11111222 
TABS,ioos:station:wmo:42043:1,2006-01-02T07:30:00Z,28.9818,-94.9186,2.0,22.93,11111222 
TABS,ioos:station:wmo:42043:1,2006-01-02T08:00:00Z,28.9818,-94.9186,2.0,22.82,11111222 
TABS,ioos:station:wmo:42043:1,2006-01-02T08:30:00Z,28.9818,-94.9186,2.0,22.47,11111222 
TABS,ioos:station:wmo:42043:1,2006-01-02T09:00:00Z,28.9818,-94.9186,2.0,22.93,11111222 
TABS,ioos:station:wmo:42043:1,2006-01-02T09:30:00Z,28.9818,-94.9186,2.0,22.83,11111222 
TABS,ioos:station:wmo:42043:1,2006-01-02T10:00:00Z,28.9818,-94.9186,2.0,22.83,11111222 
TABS,ioos:station:wmo:42043:1,2006-01-02T10:30:00Z,28.9818,-94.9186,2.0,23.11,11111222 
TABS,ioos:station:wmo:42043:1,2006-01-02T11:00:00Z,28.9818,-94.9186,2.0,22.82,11111222 
TABS,ioos:station:wmo:42043:1,2006-01-02T11:30:00Z,28.9818,-94.9186,2.0,23.27,11111222 
TABS,ioos:station:wmo:42043:1,2006-01-02T12:00:00Z,28.9818,-94.9186,2.0,22.96,11111222 
TABS,ioos:station:wmo:42043:1,2006-01-02T12:30:00Z,28.9818,-94.9186,2.0,22.71,11111222 
TABS,ioos:station:wmo:42043:1,2006-01-02T13:00:00Z,28.9818,-94.9186,2.0,32.66,11111222 
TABS,ioos:station:wmo:42043:1,2006-01-02T13:30:00Z,28.9818,-94.9186,2.0,32.66,11111222 
TABS,ioos:station:wmo:42043:1,2006-01-02T14:00:00Z,28.9818,-94.9186,2.0,23.21,11111222 
TABS,ioos:station:wmo:42043:1,2006-01-02T14:30:00Z,28.9818,-94.9186,2.0,32.75,11111222 
TABS,ioos:station:wmo:42043:1,2006-01-02T15:00:00Z,28.9818,-94.9186,2.0,32.75,11111222 
TABS,ioos:station:wmo:42043:1,2006-01-02T15:30:00Z,28.9818,-94.9186,2.0,32.45,11111222 
TABS,ioos:station:wmo:42043:1,2006-01-02T16:00:00Z,28.9818,-94.9186,2.0,22.49,11111222 
TABS,ioos:station:wmo:42043:1,2006-01-02T16:30:00Z,28.9818,-94.9186,2.0,22.9,11111222 
TABS,ioos:station:wmo:42043:1,2006-01-02T17:00:00Z,28.9818,-94.9186,2.0,22.98,11111222 
TABS,ioos:station:wmo:42043:1,2006-01-02T17:30:00Z,28.9818,-94.9186,2.0,25.3,11111222 
TABS,ioos:station:wmo:42043:1,2006-01-02T18:00:00Z,28.9818,-94.9186,2.0,24.72,11111222 
TABS,ioos:station:wmo:42043:1,2006-01-02T18:30:00Z,28.9818,-94.9186,2.0,22.45,11111222 
TABS,ioos:station:wmo:42043:1,2006-01-02T19:00:00Z,28.9818,-94.9186,2.0,22.28,11111222 
TABS,ioos:station:wmo:42043:1,2006-01-02T19:30:00Z,28.9818,-94.9186,2.0,23.5,11111222 
TABS,ioos:station:wmo:42043:1,2006-01-02T20:00:00Z,28.9818,-94.9186,2.0,25.71,11111222 
TABS,ioos:station:wmo:42043:1,2006-01-02T20:30:00Z,28.9818,-94.9186,2.0,23.74,11111222 
TABS,ioos:station:wmo:42043:1,2006-01-02T21:00:00Z,28.9818,-94.9186,2.0,22.11,11111222 
TABS,ioos:station:wmo:42043:1,2006-01-02T21:30:00Z,28.9818,-94.9186,2.0,25.8,11111222 
TABS,ioos:station:wmo:42043:1,2006-01-02T22:00:00Z,28.9818,-94.9186,2.0,24.83,11111222 
TABS,ioos:station:wmo:42043:1,2006-01-02T22:30:00Z,28.9818,-94.9186,2.0,27.1,11111222 
TABS,ioos:station:wmo:42043:1,2006-01-02T23:00:00Z,28.9818,-94.9186,2.0,25.79,11111222 
TABS,ioos:station:wmo:42043:1,2006-01-02T23:30:00Z,28.9818,-94.9186,2.0,32.43,11111222 
TABS,ioos:station:wmo:42043:1,2006-01-03T00:00:00Z,28.9818,-94.9186,2.0,22.84,11111222 
TABS,ioos:station:wmo:42043:1,2006-01-03T00:30:00Z,28.9818,-94.9186,2.0,22.41,11111222 
TABS,ioos:station:wmo:42043:1,2006-01-03T01:00:00Z,28.9818,-94.9186,2.0,22.66,11111222 
TABS,ioos:station:wmo:42043:1,2006-01-03T01:30:00Z,28.9818,-94.9186,2.0,22.66,11111222 
TABS,ioos:station:wmo:42043:1,2006-01-03T02:00:00Z,28.9818,-94.9186,2.0,22.89,11111222 
TABS,ioos:station:wmo:42043:1,2006-01-03T02:30:00Z,28.9818,-94.9186,2.0,22.37,11111222 
TABS,ioos:station:wmo:42043:1,2006-01-03T03:00:00Z,28.9818,-94.9186,2.0,22.07,11111222 
TABS,ioos:station:wmo:42043:1,2006-01-03T03:30:00Z,28.9818,-94.9186,2.0,22.62,11111222 
TABS,ioos:station:wmo:42043:1,2006-01-03T04:00:00Z,28.9818,-94.9186,2.0,22.35,11111222 
TABS,ioos:station:wmo:42043:1,2006-01-03T04:30:00Z,28.9818,-94.9186,2.0,22.6,11111222 
TABS,ioos:station:wmo:42043:1,2006-01-03T05:00:00Z,28.9818,-94.9186,2.0,22.42,11111222 
TABS,ioos:station:wmo:42043:1,2006-01-03T05:30:00Z,28.9818,-94.9186,2.0,22.66,11111222 
TABS,ioos:station:wmo:42043:1,2006-01-03T06:00:00Z,28.9818,-94.9186,2.0,22.59,11111222 
TABS,ioos:station:wmo:42043:1,2006-01-03T06:30:00Z,28.9818,-94.9186,2.0,22.87,11111222 
TABS,ioos:station:wmo:42043:1,2006-01-03T07:00:00Z,28.9818,-94.9186,2.0,22.51,11111222 
TABS,ioos:station:wmo:42043:1,2006-01-03T07:30:00Z,28.9818,-94.9186,2.0,22.49,11111222 
TABS,ioos:station:wmo:42043:1,2006-01-03T08:00:00Z,28.9818,-94.9186,2.0,22.51,11111222 
TABS,ioos:station:wmo:42043:1,2006-01-03T08:30:00Z,28.9818,-94.9186,2.0,22.4,11111222 
TABS,ioos:station:wmo:42043:1,2006-01-03T09:00:00Z,28.9818,-94.9186,2.0,22.27,11111222 
TABS,ioos:station:wmo:42043:1,2006-01-03T09:30:00Z,28.9818,-94.9186,2.0,22.77,11111222 
TABS,ioos:station:wmo:42043:1,2006-01-03T10:00:00Z,28.9818,-94.9186,2.0,22.86,11111222 
TABS,ioos:station:wmo:42043:1,2006-01-03T10:30:00Z,28.9818,-94.9186,2.0,22.7,11111222 
TABS,ioos:station:wmo:42043:1,2006-01-03T11:00:00Z,28.9818,-94.9186,2.0,22.45,11111222 
TABS,ioos:station:wmo:42043:1,2006-01-03T11:30:00Z,28.9818,-94.9186,2.0,22.74,11111222 
TABS,ioos:station:wmo:42043:1,2006-01-03T12:00:00Z,28.9818,-94.9186,2.0,22.93,11111222 
TABS,ioos:station:wmo:42043:1,2006-01-03T12:30:00Z,28.9818,-94.9186,2.0,32.36,11111222 
TABS,ioos:station:wmo:42043:1,2006-01-03T13:00:00Z,28.9818,-94.9186,2.0,32.37,11111222 
TABS,ioos:station:wmo:42043:1,2006-01-03T13:30:00Z,28.9818,-94.9186,2.0,22.41,11111222 
TABS,ioos:station:wmo:42043:1,2006-01-03T14:00:00Z,28.9818,-94.9186,2.0,21.9,11111222 
TABS,ioos:station:wmo:42043:1,2006-01-03T14:30:00Z,28.9818,-94.9186,2.0,22.22,11111222 
TABS,ioos:station:wmo:42043:1,2006-01-03T15:00:00Z,28.9818,-94.9186,2.0,22.13,11111222 
TABS,ioos:station:wmo:42043:1,2006-01-03T15:30:00Z,28.9818,-94.9186,2.0,22.92,11111222 
TABS,ioos:station:wmo:42043:1,2006-01-03T16:00:00Z,28.9818,-94.9186,2.0,32.48,11111222 
TABS,ioos:station:wmo:42043:1,2006-01-03T16:30:00Z,28.9818,-94.9186,2.0,23.2,11111222 
TABS,ioos:station:wmo:42043:1,2006-01-03T17:00:00Z,28.9818,-94.9186,2.0,26.13,11111222 
TABS,ioos:station:wmo:42043:1,2006-01-03T17:30:00Z,28.9818,-94.9186,2.0,21.86,11111222 
TABS,ioos:station:wmo:42043:1,2006-01-03T18:00:00Z,28.9818,-94.9186,2.0,22.01,11111222 
TABS,ioos:station:wmo:42043:1,2006-01-03T18:30:00Z,28.9818,-94.9186,2.0,22.24,11111222 
TABS,ioos:station:wmo:42043:1,2006-01-03T19:00:00Z,28.9818,-94.9186,2.0,25.74,11111222 
TABS,ioos:station:wmo:42043:1,2006-01-03T19:30:00Z,28.9818,-94.9186,2.0,32.58,11111222 
TABS,ioos:station:wmo:42043:1,2006-01-03T20:00:00Z,28.9818,-94.9186,2.0,32.54,11111222 
TABS,ioos:station:wmo:42043:1,2006-01-03T20:30:00Z,28.9818,-94.9186,2.0,26.45,11111222 
TABS,ioos:station:wmo:42043:1,2006-01-03T21:00:00Z,28.9818,-94.9186,2.0,22.15,11111222 
TABS,ioos:station:wmo:42043:1,2006-01-03T21:30:00Z,28.9818,-94.9186,2.0,22.54,11111222 
TABS,ioos:station:wmo:42043:1,2006-01-03T22:00:00Z,28.9818,-94.9186,2.0,25.13,11111222 
TABS,ioos:station:wmo:42043:1,2006-01-03T22:30:00Z,28.9818,-94.9186,2.0,27.11,11111222 
TABS,ioos:station:wmo:42043:1,2006-01-03T23:00:00Z,28.9818,-94.9186,2.0,32.43,11111222 
TABS,ioos:station:wmo:42043:1,2006-01-03T23:30:00Z,28.9818,-94.9186,2.0,25.71,11111222 
TABS,ioos:station:wmo:42043:1,2006-01-04T00:00:00Z,28.9818,-94.9186,2.0,24.79,11111222 
TABS,ioos:station:wmo:42043:1,2006-01-04T00:30:00Z,28.9818,-94.9186,2.0,22.64,11111222 
TABS,ioos:station:wmo:42043:1,2006-01-04T01:00:00Z,28.9818,-94.9186,2.0,22.02,11111222 
TABS,ioos:station:wmo:42043:1,2006-01-04T01:30:00Z,28.9818,-94.9186,2.0,22.07,11111222 
TABS,ioos:station:wmo:42043:1,2006-01-04T02:00:00Z,28.9818,-94.9186,2.0,22.53,11111222 
TABS,ioos:station:wmo:42043:1,2006-01-04T02:30:00Z,28.9818,-94.9186,2.0,22.42,11111222 
TABS,ioos:station:wmo:42043:1,2006-01-04T03:00:00Z,28.9818,-94.9186,2.0,22.16,11111222 
TABS,ioos:station:wmo:42043:1,2006-01-04T03:30:00Z,28.9818,-94.9186,2.0,22.38,11111222 
TABS,ioos:station:wmo:42043:1,2006-01-04T04:00:00Z,28.9818,-94.9186,2.0,22.53,11111222 
TABS,ioos:station:wmo:42043:1,2006-01-04T04:30:00Z,28.9818,-94.9186,2.0,22.0,11111222 
TABS,ioos:station:wmo:42043:1,2006-01-04T05:00:00Z,28.9818,-94.9186,2.0,22.39,11111222 
TABS,ioos:station:wmo:42043:1,2006-01-04T05:30:00Z,28.9818,-94.9186,2.0,22.1,11111222 
TABS,ioos:station:wmo:42043:1,2006-01-04T06:00:00Z,28.9818,-94.9186,2.0,21.93,11111222 
TABS,ioos:station:wmo:42043:1,2006-01-04T06:30:00Z,28.9818,-94.9186,2.0,22.05,11111222 
TABS,ioos:station:wmo:42043:1,2006-01-04T07:00:00Z,28.9818,-94.9186,2.0,22.39,11111222 
TABS,ioos:station:wmo:42043:1,2006-01-04T07:30:00Z,28.9818,-94.9186,2.0,22.58,11111222 
TABS,ioos:station:wmo:42043:1,2006-01-04T08:00:00Z,28.9818,-94.9186,2.0,22.36,11111222 
TABS,ioos:station:wmo:42043:1,2006-01-04T08:30:00Z,28.9818,-94.9186,2.0,21.86,11111222 
TABS,ioos:station:wmo:42043:1,2006-01-04T09:00:00Z,28.9818,-94.9186,2.0,24.47,11111222 
TABS,ioos:station:wmo:42043:1,2006-01-04T09:30:00Z,28.9818,-94.9186,2.0,22.78,11111222 
TABS,ioos:station:wmo:42043:1,2006-01-04T10:00:00Z,28.9818,-94.9186,2.0,23.09,11111222 
TABS,ioos:station:wmo:42043:1,2006-01-04T10:30:00Z,28.9818,-94.9186,2.0,22.64,11111222 
TABS,ioos:station:wmo:42043:1,2006-01-04T11:00:00Z,28.9818,-94.9186,2.0,24.4,11111222 
TABS,ioos:station:wmo:42043:1,2006-01-04T11:30:00Z,28.9818,-94.9186,2.0,24.59,11111222 
TABS,ioos:station:wmo:42043:1,2006-01-04T12:00:00Z,28.9818,-94.9186,2.0,23.21,11111222 
TABS,ioos:station:wmo:42043:1,2006-01-04T12:30:00Z,28.9818,-94.9186,2.0,32.27,11111222 
TABS,ioos:station:wmo:42043:1,2006-01-04T13:00:00Z,28.9818,-94.9186,2.0,32.27,11111222 
TABS,ioos:station:wmo:42043:1,2006-01-04T13:30:00Z,28.9818,-94.9186,2.0,22.33,11111222 
TABS,ioos:station:wmo:42043:1,2006-01-04T14:00:00Z,28.9818,-94.9186,2.0,32.28,11111222 
TABS,ioos:station:wmo:42043:1,2006-01-04T14:30:00Z,28.9818,-94.9186,2.0,32.28,11111222 
TABS,ioos:station:wmo:42043:1,2006-01-04T15:00:00Z,28.9818,-94.9186,2.0,25.25,11111222 
TABS,ioos:station:wmo:42043:1,2006-01-04T15:30:00Z,28.9818,-94.9186,2.0,32.32,11111222 
TABS,ioos:station:wmo:42043:1,2006-01-04T16:00:00Z,28.9818,-94.9186,2.0,22.4,11111222 
TABS,ioos:station:wmo:42043:1,2006-01-04T16:30:00Z,28.9818,-94.9186,2.0,23.23,11111222 
TABS,ioos:station:wmo:42043:1,2006-01-04T17:00:00Z,28.9818,-94.9186,2.0,23.51,11111222 
TABS,ioos:station:wmo:42043:1,2006-01-04T17:30:00Z,28.9818,-94.9186,2.0,21.77,11111222 
TABS,ioos:station:wmo:42043:1,2006-01-04T18:00:00Z,28.9818,-94.9186,2.0,21.76,11111222 
TABS,ioos:station:wmo:42043:1,2006-01-04T18:30:00Z,28.9818,-94.9186,2.0,21.82,11111222 
TABS,ioos:station:wmo:42043:1,2006-01-04T19:00:00Z,28.9818,-94.9186,2.0,23.7,11111222 
TABS,ioos:station:wmo:42043:1,2006-01-04T19:30:00Z,28.9818,-94.9186,2.0,22.25,11111222 
TABS,ioos:station:wmo:42043:1,2006-01-04T20:00:00Z,28.9818,-94.9186,2.0,21.69,11111222 
TABS,ioos:station:wmo:42043:1,2006-01-04T20:30:00Z,28.9818,-94.9186,2.0,32.43,11111222 
TABS,ioos:station:wmo:42043:1,2006-01-04T21:00:00Z,28.9818,-94.9186,2.0,32.41,11111222 
TABS,ioos:station:wmo:42043:1,2006-01-04T21:30:00Z,28.9818,-94.9186,2.0,32.41,11111222 
TABS,ioos:station:wmo:42043:1,2006-01-04T22:00:00Z,28.9818,-94.9186,2.0,25.83,11111222 
TABS,ioos:station:wmo:42043:1,2006-01-04T22:30:00Z,28.9818,-94.9186,2.0,32.36,11111222 
TABS,ioos:station:wmo:42043:1,2006-01-04T23:00:00Z,28.9818,-94.9186,2.0,32.38,11111222 
TABS,ioos:station:wmo:42043:1,2006-01-04T23:30:00Z,28.9818,-94.9186,2.0,32.37,11111222 
TABS,ioos:station:wmo:42043:1,2006-01-05T00:00:00Z,28.9818,-94.9186,2.0,32.37,11111222 
TABS,ioos:station:wmo:42043:1,2006-01-05T00:30:00Z,28.9818,-94.9186,2.0,22.24,11111222 
TABS,ioos:station:wmo:42043:1,2006-01-05T01:00:00Z,28.9818,-94.9186,2.0,21.76,11111222 
TABS,ioos:station:wmo:42043:1,2006-01-05T01:30:00Z,28.9818,-94.9186,2.0,21.84,11111222 
TABS,ioos:station:wmo:42043:1,2006-01-05T02:00:00Z,28.9818,-94.9186,2.0,21.74,11111222 
TABS,ioos:station:wmo:42043:1,2006-01-05T02:30:00Z,28.9818,-94.9186,2.0,21.68,11111222 
TABS,ioos:station:wmo:42043:1,2006-01-05T03:00:00Z,28.9818,-94.9186,2.0,21.48,11111222 
TABS,ioos:station:wmo:42043:1,2006-01-05T03:30:00Z,28.9818,-94.9186,2.0,21.77,11111222 
TABS,ioos:station:wmo:42043:1,2006-01-05T04:00:00Z,28.9818,-94.9186,2.0,21.59,11111222 
TABS,ioos:station:wmo:42043:1,2006-01-05T04:30:00Z,28.9818,-94.9186,2.0,21.75,11111222 
TABS,ioos:station:wmo:42043:1,2006-01-05T05:00:00Z,28.9818,-94.9186,2.0,22.32,11111222 
TABS,ioos:station:wmo:42043:1,2006-01-05T05:30:00Z,28.9818,-94.9186,2.0,22.3,11111222 
TABS,ioos:station:wmo:42043:1,2006-01-05T06:00:00Z,28.9818,-94.9186,2.0,21.83,11111222 
TABS,ioos:station:wmo:42043:1,2006-01-05T06:30:00Z,28.9818,-94.9186,2.0,21.71,11111222 
TABS,ioos:station:wmo:42043:1,2006-01-05T07:00:00Z,28.9818,-94.9186,2.0,22.09,11111222 
TABS,ioos:station:wmo:42043:1,2006-01-05T07:30:00Z,28.9818,-94.9186,2.0,21.69,11111222 
TABS,ioos:station:wmo:42043:1,2006-01-05T08:00:00Z,28.9818,-94.9186,2.0,22.33,11111222 
TABS,ioos:station:wmo:42043:1,2006-01-05T08:30:00Z,28.9818,-94.9186,2.0,22.2,11111222 
TABS,ioos:station:wmo:42043:1,2006-01-05T09:00:00Z,28.9818,-94.9186,2.0,22.27,11111222 
TABS,ioos:station:wmo:42043:1,2006-01-05T09:30:00Z,28.9818,-94.9186,2.0,32.3,11111222 
TABS,ioos:station:wmo:42043:1,2006-01-05T10:00:00Z,28.9818,-94.9186,2.0,32.38,11111222 
TABS,ioos:station:wmo:42043:1,2006-01-05T10:30:00Z,28.9818,-94.9186,2.0,32.28,11111222 
TABS,ioos:station:wmo:42043:1,2006-01-05T11:00:00Z,28.9818,-94.9186,2.0,32.35,11111222 
TABS,ioos:station:wmo:42043:1,2006-01-05T11:30:00Z,28.9818,-94.9186,2.0,32.38,11111222 
TABS,ioos:station:wmo:42043:1,2006-01-05T12:00:00Z,28.9818,-94.9186,2.0,32.4,11111222 
TABS,ioos:station:wmo:42043:1,2006-01-05T12:30:00Z,28.9818,-94.9186,2.0,32.44,11111222 
TABS,ioos:station:wmo:42043:1,2006-01-05T13:00:00Z,28.9818,-94.9186,2.0,32.42,11111222 
TABS,ioos:station:wmo:42043:1,2006-01-05T13:30:00Z,28.9818,-94.9186,2.0,32.52,11111222 
TABS,ioos:station:wmo:42043:1,2006-01-05T14:00:00Z,28.9818,-94.9186,2.0,32.52,11111222 
TABS,ioos:station:wmo:42043:1,2006-01-05T14:30:00Z,28.9818,-94.9186,2.0,32.51,11111222 
TABS,ioos:station:wmo:42043:1,2006-01-05T15:00:00Z,28.9818,-94.9186,2.0,32.69,11111222 
TABS,ioos:station:wmo:42043:1,2006-01-05T15:30:00Z,28.9818,-94.9186,2.0,32.73,11111222 
TABS,ioos:station:wmo:42043:1,2006-01-05T16:00:00Z,28.9818,-94.9186,2.0,32.79,11111222 
TABS,ioos:station:wmo:42043:1,2006-01-05T16:30:00Z,28.9818,-94.9186,2.0,32.81,11111222 
TABS,ioos:station:wmo:42043:1,2006-01-05T17:00:00Z,28.9818,-94.9186,2.0,32.81,11111222 
TABS,ioos:station:wmo:42043:1,2006-01-05T17:30:00Z,28.9818,-94.9186,2.0,23.61,11111222 
TABS,ioos:station:wmo:42043:1,2006-01-05T18:00:00Z,28.9818,-94.9186,2.0,23.15,11111222 
TABS,ioos:station:wmo:42043:1,2006-01-05T18:30:00Z,28.9818,-94.9186,2.0,22.44,11111222 
TABS,ioos:station:wmo:42043:1,2006-01-05T19:00:00Z,28.9818,-94.9186,2.0,23.3,11111222 
TABS,ioos:station:wmo:42043:1,2006-01-05T19:30:00Z,28.9818,-94.9186,2.0,23.73,11111222 
TABS,ioos:station:wmo:42043:1,2006-01-05T20:00:00Z,28.9818,-94.9186,2.0,22.87,11111222 
TABS,ioos:station:wmo:42043:1,2006-01-05T20:30:00Z,28.9818,-94.9186,2.0,23.22,11111222 
TABS,ioos:station:wmo:42043:1,2006-01-05T21:00:00Z,28.9818,-94.9186,2.0,23.2,11111222 
TABS,ioos:station:wmo:42043:1,2006-01-05T21:30:00Z,28.9818,-94.9186,2.0,24.89,11111222 
TABS,ioos:station:wmo:42043:1,2006-01-05T22:00:00Z,28.9818,-94.9186,2.0,33.03,11111222 
TABS,ioos:station:wmo:42043:1,2006-01-05T22:30:00Z,28.9818,-94.9186,2.0,33.02,11111222 
TABS,ioos:station:wmo:42043:1,2006-01-05T23:00:00Z,28.9818,-94.9186,2.0,33.04,11111222 
TABS,ioos:station:wmo:42043:1,2006-01-05T23:30:00Z,28.9818,-94.9186,2.0,33.02,11111222 
TABS,ioos:station:wmo:42043:1,2006-01-06T00:00:00Z,28.9818,-94.9186,2.0,33.0,11111222 
TABS,ioos:station:wmo:42043:1,2006-01-06T00:30:00Z,28.9818,-94.9186,2.0,33.02,11111222 
TABS,ioos:station:wmo:42043:1,2006-01-06T01:00:00Z,28.9818,-94.9186,2.0,33.01,11111222 
TABS,ioos:station:wmo:42043:1,2006-01-06T01:30:00Z,28.9818,-94.9186,2.0,32.96,11111222 
TABS,ioos:station:wmo:42043:1,2006-01-06T02:00:00Z,28.9818,-94.9186,2.0,22.3,11111222 
TABS,ioos:station:wmo:42043:1,2006-01-06T02:30:00Z,28.9818,-94.9186,2.0,22.1,11111222 
TABS,ioos:station:wmo:42043:1,2006-01-06T03:00:00Z,28.9818,-94.9186,2.0,22.44,11111222 
TABS,ioos:station:wmo:42043:1,2006-01-06T03:30:00Z,28.9818,-94.9186,2.0,22.51,11111222 
TABS,ioos:station:wmo:42043:1,2006-01-06T04:00:00Z,28.9818,-94.9186,2.0,22.59,11111222 
TABS,ioos:station:wmo:42043:1,2006-01-06T04:30:00Z,28.9818,-94.9186,2.0,22.06,11111222 
TABS,ioos:station:wmo:42043:1,2006-01-06T05:00:00Z,28.9818,-94.9186,2.0,22.57,11111222 
TABS,ioos:station:wmo:42043:1,2006-01-06T05:30:00Z,28.9818,-94.9186,2.0,22.3,11111222 
TABS,ioos:station:wmo:42043:1,2006-01-06T06:00:00Z,28.9818,-94.9186,2.0,22.23,11111222 
TABS,ioos:station:wmo:42043:1,2006-01-06T06:30:00Z,28.9818,-94.9186,2.0,22.32,11111222 
TABS,ioos:station:wmo:42043:1,2006-01-06T07:00:00Z,28.9818,-94.9186,2.0,22.36,11111222 
TABS,ioos:station:wmo:42043:1,2006-01-06T07:30:00Z,28.9818,-94.9186,2.0,22.41,11111222 
TABS,ioos:station:wmo:42043:1,2006-01-06T08:00:00Z,28.9818,-94.9186,2.0,22.27,11111222 
TABS,ioos:station:wmo:42043:1,2006-01-06T08:30:00Z,28.9818,-94.9186,2.0,22.41,11111222 
TABS,ioos:station:wmo:42043:1,2006-01-06T09:00:00Z,28.9818,-94.9186,2.0,22.09,11111222 
TABS,ioos:station:wmo:42043:1,2006-01-06T09:30:00Z,28.9818,-94.9186,2.0,21.95,11111222 
TABS,ioos:station:wmo:42043:1,2006-01-06T10:00:00Z,28.9818,-94.9186,2.0,22.06,11111222 
TABS,ioos:station:wmo:42043:1,2006-01-06T10:30:00Z,28.9818,-94.9186,2.0,22.36,11111222 
TABS,ioos:station:wmo:42043:1,2006-01-06T11:00:00Z,28.9818,-94.9186,2.0,21.01,11111222 
TABS,ioos:station:wmo:42043:1,2006-01-06T11:30:00Z,28.9818,-94.9186,2.0,22.12,11111222 
TABS,ioos:station:wmo:42043:1,2006-01-06T12:00:00Z,28.9818,-94.9186,2.0,23.27,11111222 
TABS,ioos:station:wmo:42043:1,2006-01-06T12:30:00Z,28.9818,-94.9186,2.0,32.85,11111222 
TABS,ioos:station:wmo:42043:1,2006-01-06T13:00:00Z,28.9818,-94.9186,2.0,32.8,11111222 
TABS,ioos:station:wmo:42043:1,2006-01-06T13:30:00Z,28.9818,-94.9186,2.0,32.8,11111222 
TABS,ioos:station:wmo:42043:1,2006-01-06T14:00:00Z,28.9818,-94.9186,2.0,32.91,11111222 
TABS,ioos:station:wmo:42043:1,2006-01-06T14:30:00Z,28.9818,-94.9186,2.0,32.94,11111222 
TABS,ioos:station:wmo:42043:1,2006-01-06T15:00:00Z,28.9818,-94.9186,2.0,32.92,11111222 
TABS,ioos:station:wmo:42043:1,2006-01-06T15:30:00Z,28.9818,-94.9186,2.0,22.6,11111222 